| time (UTC) | temp F | wind direction | speed MPH | gust MPH | rain 1hr in | rain 24hr in | rain mn in | humidity % | barometer mb |
| 20260506084404 | 53 | 350 | 8.0 | 11.0 | 0.00 | 0.00 | 0.00 | 67 | 998.4 |
| 20260506084003 | 53 | 340 | 8.0 | 11.0 | 0.00 | 0.00 | 0.00 | 66 | 998.5 |
| 20260506083804 | 53 | 347 | 8.0 | 11.0 | 0.00 | 0.00 | 0.00 | 67 | 998.6 |
| 20260506083604 | 53 | 349 | 8.0 | 11.0 | 0.00 | 0.00 | 0.00 | 70 | 998.5 |
| 20260506083403 | 53 | 339 | 7.0 | 11.0 | 0.00 | 0.00 | 0.00 | 70 | 998.6 |
| 20260506083204 | 52 | 348 | 8.0 | 13.0 | 0.00 | 0.00 | 0.00 | 70 | 998.6 |
| 20260506083004 | 51 | 351 | 9.0 | 13.0 | 0.00 | 0.00 | 0.00 | 70 | 998.5 |
| 20260506082804 | 51 | 343 | 9.0 | 13.0 | 0.00 | 0.00 | 0.00 | 70 | 998.6 |
| 20260506082603 | 50 | 341 | 9.0 | 13.0 | 0.00 | 0.00 | 0.00 | 70 | 998.6 |
| 20260506082404 | 50 | 344 | 9.0 | 13.0 | 0.00 | 0.00 | 0.00 | 70 | 998.5 |
| 20260506082204 | 50 | 336 | 9.0 | 13.0 | 0.00 | 0.00 | 0.00 | 70 | 998.6 |
| 20260506082004 | 50 | 335 | 8.0 | 12.0 | 0.00 | 0.00 | 0.00 | 70 | 998.6 |
| 20260506081803 | 50 | 341 | 8.0 | 12.0 | 0.00 | 0.00 | 0.00 | 70 | 998.6 |
| 20260506081603 | 50 | 335 | 9.0 | 12.0 | 0.00 | 0.00 | 0.00 | 70 | 998.6 |
| 20260506081404 | 51 | 334 | 9.0 | 12.0 | 0.00 | 0.00 | 0.00 | 69 | 998.6 |
| 20260506081204 | 51 | 335 | 9.0 | 11.0 | 0.00 | 0.00 | 0.00 | 70 | 998.5 |
| 20260506081003 | 51 | 333 | 9.0 | 11.0 | 0.00 | 0.00 | 0.00 | 69 | 998.7 |
| 20260506080804 | 51 | 329 | 10.0 | 12.0 | 0.00 | 0.00 | 0.00 | 69 | 998.6 |
| 20260506080604 | 51 | 337 | 10.0 | 12.0 | 0.00 | 0.00 | 0.00 | 70 | 998.5 |
| 20260506080404 | 51 | 335 | 10.0 | 12.0 | 0.00 | 0.00 | 0.00 | 70 | 998.5 |
| 20260506080203 | 51 | 335 | 10.0 | 12.0 | 0.00 | 0.00 | 0.00 | 70 | 998.5 |
| 20260506073404 | 51 | 345 | 8.0 | 11.0 | 0.00 | 0.00 | 0.00 | 71 | 998.5 |
| 20260506073204 | 51 | 339 | 7.0 | 11.0 | 0.00 | 0.00 | 0.00 | 71 | 998.8 |
| 20260506073004 | 51 | 343 | 6.0 | 9.0 | 0.00 | 0.00 | 0.00 | 72 | 998.5 |
| 20260506072804 | 51 | 330 | 7.0 | 11.0 | 0.00 | 0.00 | 0.00 | 73 | 998.6 |
| 20260506072604 | 50 | 312 | 7.0 | 11.0 | 0.00 | 0.00 | 0.00 | 73 | 998.6 |
| 20260506072404 | 50 | 321 | 8.0 | 11.0 | 0.00 | 0.00 | 0.00 | 74 | 998.5 |
| 20260506072203 | 49 | 324 | 8.0 | 11.0 | 0.00 | 0.00 | 0.00 | 74 | 998.4 |
| 20260506072004 | 48 | 325 | 8.0 | 11.0 | 0.00 | 0.00 | 0.00 | 74 | 998.5 |
| 20260506071604 | 47 | 347 | 8.0 | 12.0 | 0.00 | 0.00 | 0.00 | 75 | 998.5 |
| 20260506071404 | 47 | 343 | 8.0 | 12.0 | 0.00 | 0.00 | 0.00 | 75 | 998.5 |
| 20260506071203 | 47 | 343 | 8.0 | 12.0 | 0.00 | 0.00 | 0.00 | 74 | 998.6 |
| 20260506070804 | 47 | 341 | 9.0 | 12.0 | 0.00 | 0.00 | 0.00 | 74 | 998.5 |
| 20260506070604 | 47 | 344 | 9.0 | 12.0 | 0.00 | 0.00 | 0.00 | 75 | 998.5 |
| 20260506070403 | 47 | 340 | 9.0 | 12.0 | 0.00 | 0.00 | 0.00 | 74 | 998.5 |
| 20260506070204 | 47 | 342 | 10.0 | 13.0 | 0.00 | 0.00 | 0.00 | 75 | 998.3 |
| 20260506062404 | 46 | 342 | 7.0 | 11.0 | 0.00 | 0.00 | 0.00 | 79 | 998.3 |
| 20260506062204 | 46 | 343 | 7.0 | 11.0 | 0.00 | 0.00 | 0.00 | 79 | 998.3 |
| 20260506062003 | 46 | 353 | 6.0 | 8.0 | 0.00 | 0.00 | 0.00 | 79 | 998.3 |
| 20260506061604 | 46 | 339 | 6.0 | 8.0 | 0.00 | 0.00 | 0.00 | 79 | 998.3 |
| 20260506061403 | 46 | 349 | 6.0 | 8.0 | 0.00 | 0.00 | 0.00 | 79 | 998.3 |
| 20260506061004 | 46 | 352 | 5.0 | 8.0 | 0.00 | 0.00 | 0.00 | 79 | 998.2 |
| 20260506060604 | 46 | 355 | 5.0 | 7.0 | 0.00 | 0.00 | 0.00 | 80 | 998.2 |
| 20260506060403 | 46 | 348 | 5.0 | 7.0 | 0.00 | 0.00 | 0.00 | 80 | 998.2 |
| 20260506060203 | 46 | 352 | 6.0 | 10.0 | 0.00 | 0.00 | 0.00 | 80 | 998.2 |
| 20260506051403 | 45 | 340 | 5.0 | 7.0 | 0.00 | 0.00 | 0.00 | 84 | 998.0 |
| 20260506051004 | 45 | 335 | 4.0 | 6.0 | 0.00 | 0.00 | 0.00 | 83 | 997.9 |
| 20260506050804 | 45 | 345 | 5.0 | 6.0 | 0.00 | 0.00 | 0.00 | 83 | 998.0 |
| 20260506050603 | 45 | 354 | 5.0 | 6.0 | 0.00 | 0.00 | 0.00 | 83 | 998.0 |
| 20260506050404 | 45 | 355 | 5.0 | 6.0 | 0.00 | 0.00 | 0.00 | 83 | 998.1 |
| 20260506045003 | 45 | 321 | 5.0 | 8.0 | 0.00 | 0.00 | 0.00 | 82 | 998.0 |
| 20260506044804 | 46 | 327 | 5.0 | 8.0 | 0.00 | 0.00 | 0.00 | 77 | 998.0 |
| 20260506044404 | 46 | 329 | 4.0 | 6.0 | 0.00 | 0.00 | 0.00 | 77 | 998.0 |
| 20260506044204 | 46 | 336 | 4.0 | 8.0 | 0.00 | 0.00 | 0.00 | 77 | 997.9 |
| 20260506044004 | 46 | 339 | 5.0 | 8.0 | 0.00 | 0.00 | 0.00 | 77 | 998.0 |
| 20260506043804 | 46 | 326 | 5.0 | 8.0 | 0.00 | 0.00 | 0.00 | 77 | 998.0 |
| 20260506043603 | 46 | 331 | 6.0 | 8.0 | 0.00 | 0.00 | 0.00 | 77 | 998.0 |
| 20260506043403 | 46 | 338 | 6.0 | 8.0 | 0.00 | 0.00 | 0.00 | 77 | 998.0 |
| 20260506043204 | 46 | 337 | 6.0 | 8.0 | 0.00 | 0.00 | 0.00 | 77 | 998.0 |
| 20260506043004 | 46 | 343 | 6.0 | 8.0 | 0.00 | 0.00 | 0.00 | 77 | 998.0 |
| 20260506042803 | 46 | 348 | 6.0 | 8.0 | 0.00 | 0.00 | 0.00 | 77 | 998.0 |
| 20260506042603 | 46 | 347 | 5.0 | 8.0 | 0.00 | 0.00 | 0.00 | 77 | 998.0 |
| 20260506042404 | 46 | 347 | 5.0 | 8.0 | 0.00 | 0.00 | 0.00 | 77 | 997.9 |
| 20260506042204 | 46 | 345 | 6.0 | 10.0 | 0.00 | 0.00 | 0.00 | 76 | 997.9 |
| 20260506042003 | 46 | 338 | 6.0 | 10.0 | 0.00 | 0.00 | 0.00 | 76 | 998.0 |
| 20260506041803 | 46 | 340 | 7.0 | 11.0 | 0.00 | 0.00 | 0.00 | 76 | 998.0 |
| 20260506041604 | 46 | 344 | 7.0 | 11.0 | 0.00 | 0.00 | 0.00 | 76 | 998.2 |
| 20260506041404 | 46 | 341 | 7.0 | 11.0 | 0.00 | 0.00 | 0.00 | 76 | 998.2 |
| 20260506041203 | 46 | 342 | 6.0 | 11.0 | 0.00 | 0.00 | 0.00 | 76 | 998.2 |
| 20260506041003 | 46 | 349 | 6.0 | 11.0 | 0.00 | 0.00 | 0.00 | 76 | 998.1 |
| 20260506040804 | 47 | 345 | 5.0 | 7.0 | 0.00 | 0.00 | 0.00 | 76 | 998.2 |
| 20260506040604 | 47 | 341 | 5.0 | 6.0 | 0.00 | 0.00 | 0.00 | 76 | 997.9 |
| 20260506040403 | 47 | 347 | 5.0 | 8.0 | 0.00 | 0.00 | 0.00 | 76 | 997.9 |
| 20260506040203 | 47 | 346 | 6.0 | 8.0 | 0.00 | 0.00 | 0.00 | 76 | 997.9 |
| 20260506040004 | 47 | 346 | 6.0 | 8.0 | 0.00 | 0.00 | 0.00 | 76 | 998.0 |
| 20260506035804 | 47 | 345 | 6.0 | 8.0 | 0.00 | 0.00 | 0.00 | 76 | 998.1 |
| 20260506035603 | 47 | 348 | 7.0 | 8.0 | 0.00 | 0.00 | 0.00 | 76 | 998.0 |
| 20260506035403 | 47 | 339 | 7.0 | 9.0 | 0.00 | 0.00 | 0.00 | 76 | 998.2 |
| 20260506035204 | 47 | 342 | 7.0 | 9.0 | 0.00 | 0.00 | 0.00 | 76 | 998.2 |
| 20260506035004 | 47 | 335 | 6.0 | 9.0 | 0.00 | 0.00 | 0.00 | 76 | 998.1 |
| 20260506034803 | 47 | 341 | 6.0 | 9.0 | 0.00 | 0.00 | 0.00 | 76 | 997.9 |
| 20260506034404 | 47 | 345 | 5.0 | 9.0 | 0.00 | 0.00 | 0.00 | 76 | 998.0 |
| 20260506034204 | 47 | 341 | 5.0 | 7.0 | 0.00 | 0.00 | 0.00 | 77 | 998.0 |
| 20260506034004 | 47 | 342 | 5.0 | 7.0 | 0.00 | 0.00 | 0.00 | 77 | 998.1 |
| 20260506033603 | 47 | 342 | 6.0 | 8.0 | 0.00 | 0.00 | 0.00 | 76 | 998.0 |
| 20260506033404 | 47 | 341 | 6.0 | 8.0 | 0.00 | 0.00 | 0.00 | 76 | 998.1 |
| 20260506033204 | 47 | 336 | 6.0 | 8.0 | 0.00 | 0.00 | 0.00 | 76 | 998.0 |
| 20260506033004 | 47 | 336 | 5.0 | 8.0 | 0.00 | 0.00 | 0.00 | 76 | 998.2 |
| 20260506032603 | 47 | 336 | 5.0 | 7.0 | 0.00 | 0.00 | 0.00 | 76 | 998.0 |
| 20260506032404 | 47 | 336 | 5.0 | 7.0 | 0.00 | 0.00 | 0.00 | 76 | 998.0 |
| 20260506032204 | 48 | 342 | 4.0 | 7.0 | 0.00 | 0.00 | 0.00 | 76 | 998.0 |
| 20260506032004 | 48 | 345 | 4.0 | 7.0 | 0.00 | 0.00 | 0.00 | 76 | 998.0 |
| 20260506031803 | 48 | 342 | 4.0 | 4.0 | 0.00 | 0.00 | 0.00 | 76 | 998.0 |
| 20260506031603 | 48 | 343 | 4.0 | 5.0 | 0.00 | 0.00 | 0.00 | 76 | 998.1 |
| 20260506031403 | 48 | 341 | 4.0 | 5.0 | 0.00 | 0.00 | 0.00 | 76 | 998.1 |
| 20260506031204 | 48 | 338 | 4.0 | 5.0 | 0.00 | 0.00 | 0.00 | 75 | 998.2 |
| 20260506031004 | 48 | 343 | 4.0 | 5.0 | 0.00 | 0.00 | 0.00 | 75 | 998.1 |
| 20260506030404 | 48 | 331 | 4.0 | 5.0 | 0.00 | 0.00 | 0.00 | 75 | 998.1 |
| 20260506030004 | 48 | 337 | 5.0 | 8.0 | 0.00 | 0.00 | 0.00 | 75 | 998.2 |
| 20260506025803 | 48 | 340 | 5.0 | 8.0 | 0.00 | 0.00 | 0.00 | 75 | 998.3 |
| 20260506025604 | 48 | 339 | 6.0 | 8.0 | 0.00 | 0.00 | 0.00 | 75 | 998.2 |
| 20260506025404 | 48 | 344 | 6.0 | 8.0 | 0.00 | 0.00 | 0.00 | 75 | 998.3 |
| 20260506025203 | 48 | 345 | 6.0 | 8.0 | 0.00 | 0.00 | 0.00 | 75 | 998.2 |
| 20260506025003 | 48 | 339 | 6.0 | 8.0 | 0.00 | 0.00 | 0.00 | 75 | 998.4 |
| 20260506024804 | 48 | 344 | 6.0 | 9.0 | 0.00 | 0.00 | 0.00 | 75 | 998.4 |
| 20260506024604 | 48 | 343 | 7.0 | 9.0 | 0.00 | 0.00 | 0.00 | 75 | 998.3 |
| 20260506024403 | 48 | 336 | 7.0 | 9.0 | 0.00 | 0.00 | 0.00 | 74 | 998.3 |
| 20260506024203 | 48 | 330 | 7.0 | 9.0 | 0.00 | 0.00 | 0.00 | 74 | 998.5 |
| 20260506024003 | 48 | 332 | 7.0 | 9.0 | 0.00 | 0.00 | 0.00 | 74 | 998.4 |
| 20260506023804 | 48 | 331 | 6.0 | 8.0 | 0.00 | 0.00 | 0.00 | 74 | 998.4 |
| 20260506023604 | 48 | 325 | 6.0 | 7.0 | 0.00 | 0.00 | 0.00 | 74 | 998.4 |
| 20260506023403 | 48 | 333 | 6.0 | 10.0 | 0.00 | 0.00 | 0.00 | 74 | 998.4 |
| 20260506023203 | 48 | 342 | 6.0 | 10.0 | 0.00 | 0.00 | 0.00 | 74 | 998.4 |
| 20260506023004 | 48 | 342 | 6.0 | 10.0 | 0.00 | 0.00 | 0.00 | 74 | 998.4 |
| 20260506022804 | 48 | 338 | 6.0 | 10.0 | 0.00 | 0.00 | 0.00 | 74 | 998.4 |
| 20260506022403 | 49 | 347 | 5.0 | 8.0 | 0.00 | 0.00 | 0.00 | 74 | 998.4 |
| 20260506022004 | 49 | 344 | 5.0 | 8.0 | 0.00 | 0.00 | 0.00 | 74 | 998.5 |
| 20260506021804 | 49 | 330 | 5.0 | 8.0 | 0.00 | 0.00 | 0.00 | 73 | 998.6 |
| 20260506021603 | 49 | 323 | 5.0 | 8.0 | 0.00 | 0.00 | 0.00 | 73 | 998.6 |
| 20260506021404 | 49 | 324 | 5.0 | 8.0 | 0.00 | 0.00 | 0.00 | 73 | 998.5 |
| 20260506021004 | 49 | 325 | 5.0 | 8.0 | 0.00 | 0.00 | 0.00 | 73 | 998.4 |
| 20260506020803 | 49 | 86 | 5.0 | 8.0 | 0.00 | 0.00 | 0.00 | 73 | 998.5 |
| 20260506020604 | 49 | 24 | 6.0 | 10.0 | 0.00 | 0.00 | 0.00 | 73 | 998.5 |
| 20260506020419 | 49 | 351 | 6.0 | 10.0 | 0.00 | 0.00 | 0.00 | 73 | 998.5 |
| 20260506020204 | 49 | 353 | 7.0 | 10.0 | 0.00 | 0.00 | 0.00 | 73 | 998.5 |
| 20260506020004 | 49 | 352 | 7.0 | 10.0 | 0.00 | 0.00 | 0.00 | 73 | 998.5 |
| 20260506015803 | 49 | 354 | 7.0 | 10.0 | 0.00 | 0.00 | 0.00 | 73 | 998.6 |
| 20260506015603 | 49 | 2 | 6.0 | 10.0 | 0.00 | 0.00 | 0.00 | 73 | 998.6 |
| 20260506015004 | 49 | 126 | 3.0 | 5.0 | 0.00 | 0.00 | 0.00 | 73 | 998.6 |
| 20260506014804 | 49 | 271 | 3.0 | 4.0 | 0.00 | 0.00 | 0.00 | 74 | 998.6 |
| 20260506014603 | 49 | 324 | 4.0 | 8.0 | 0.00 | 0.00 | 0.00 | 74 | 998.6 |
| 20260506014403 | 49 | 336 | 5.0 | 8.0 | 0.00 | 0.00 | 0.00 | 74 | 998.7 |
| 20260506014203 | 49 | 344 | 5.0 | 8.0 | 0.00 | 0.00 | 0.00 | 74 | 998.7 |
| 20260506013604 | 49 | 327 | 5.0 | 8.0 | 0.00 | 0.00 | 0.00 | 74 | 998.8 |
| 20260506013204 | 49 | 311 | 5.0 | 8.0 | 0.00 | 0.00 | 0.00 | 75 | 998.5 |
| 20260506012803 | 49 | 312 | 5.0 | 8.0 | 0.00 | 0.00 | 0.00 | 74 | 998.8 |
| 20260506012603 | 49 | 313 | 6.0 | 8.0 | 0.00 | 0.00 | 0.00 | 74 | 998.7 |
| 20260506012204 | 49 | 341 | 5.0 | 8.0 | 0.00 | 0.00 | 0.00 | 74 | 998.7 |
| 20260506011804 | 49 | 346 | 6.0 | 8.0 | 0.00 | 0.00 | 0.00 | 75 | 998.6 |
| 20260506011603 | 49 | 348 | 7.0 | 11.0 | 0.00 | 0.00 | 0.00 | 75 | 998.7 |
| 20260506011403 | 49 | 344 | 7.0 | 11.0 | 0.00 | 0.00 | 0.00 | 75 | 998.8 |
| 20260506011204 | 49 | 341 | 8.0 | 11.0 | 0.00 | 0.00 | 0.00 | 75 | 998.7 |
| 20260506010803 | 49 | 337 | 7.0 | 11.0 | 0.00 | 0.00 | 0.00 | 75 | 998.7 |
| 20260506010403 | 50 | 315 | 6.0 | 8.0 | 0.00 | 0.00 | 0.00 | 76 | 998.8 |
| 20260506010203 | 50 | 322 | 7.0 | 10.0 | 0.00 | 0.00 | 0.00 | 76 | 998.8 |
| 20260506010004 | 50 | 315 | 8.0 | 10.0 | 0.00 | 0.00 | 0.00 | 76 | 998.7 |
| 20260506005803 | 50 | 317 | 8.0 | 10.0 | 0.00 | 0.00 | 0.00 | 76 | 998.8 |
| 20260506005603 | 50 | 323 | 7.0 | 10.0 | 0.00 | 0.00 | 0.00 | 76 | 998.7 |
| 20260506005404 | 50 | 328 | 7.0 | 10.0 | 0.00 | 0.00 | 0.00 | 77 | 998.8 |
| 20260506005004 | 50 | 312 | 6.0 | 8.0 | 0.00 | 0.00 | 0.00 | 77 | 998.8 |
| 20260506004604 | 50 | 325 | 6.0 | 9.0 | 0.00 | 0.00 | 0.00 | 78 | 998.6 |
| 20260506004404 | 50 | 333 | 6.0 | 9.0 | 0.00 | 0.00 | 0.00 | 78 | 998.8 |
| 20260506004003 | 50 | 346 | 7.0 | 9.0 | 0.00 | 0.00 | 0.00 | 78 | 998.7 |
| 20260506003604 | 50 | 340 | 6.0 | 7.0 | 0.00 | 0.00 | 0.00 | 78 | 998.8 |
| 20260506003403 | 50 | 342 | 6.0 | 7.0 | 0.00 | 0.00 | 0.00 | 78 | 998.8 |
| 20260506003203 | 50 | 340 | 5.0 | 7.0 | 0.00 | 0.00 | 0.00 | 78 | 998.8 |
| 20260506003003 | 50 | 339 | 5.0 | 7.0 | 0.00 | 0.00 | 0.00 | 78 | 998.7 |
| 20260506002804 | 50 | 338 | 5.0 | 8.0 | 0.00 | 0.00 | 0.00 | 78 | 998.8 |
| 20260506002603 | 50 | 349 | 5.0 | 8.0 | 0.00 | 0.00 | 0.00 | 78 | 998.8 |
| 20260506002403 | 50 | 340 | 6.0 | 8.0 | 0.00 | 0.00 | 0.00 | 78 | 998.8 |
| 20260506002204 | 50 | 333 | 5.0 | 8.0 | 0.00 | 0.00 | 0.00 | 78 | 998.8 |
| 20260506002004 | 50 | 330 | 5.0 | 8.0 | 0.00 | 0.00 | 0.00 | 77 | 998.9 |
| 20260506001803 | 50 | 329 | 5.0 | 8.0 | 0.00 | 0.00 | 0.00 | 77 | 998.9 |
| 20260506001603 | 50 | 338 | 4.0 | 8.0 | 0.00 | 0.00 | 0.00 | 77 | 998.9 |
| 20260506001403 | 50 | 341 | 4.0 | 7.0 | 0.00 | 0.00 | 0.00 | 77 | 998.9 |
| 20260506001004 | 50 | 342 | 5.0 | 8.0 | 0.00 | 0.00 | 0.00 | 77 | 998.8 |
| 20260506000804 | 50 | 345 | 5.0 | 8.0 | 0.00 | 0.00 | 0.00 | 77 | 998.8 |
| 20260506000603 | 50 | 339 | 6.0 | 8.0 | 0.00 | 0.00 | 0.00 | 76 | 998.9 |
| 20260506000403 | 50 | 342 | 6.0 | 8.0 | 0.00 | 0.00 | 0.00 | 76 | 999.0 |
| 20260506000205 | 50 | 341 | 6.0 | 8.0 | 0.00 | 0.00 | 0.00 | 76 | 999.0 |
| 20260506000004 | 50 | 340 | 6.0 | 8.0 | 0.00 | 0.00 | 0.00 | 76 | 999.1 |
| 20260505235803 | 50 | 323 | 5.0 | 8.0 | 0.00 | 0.00 | 0.00 | 76 | 998.9 |
| 20260505235403 | 50 | 304 | 4.0 | 7.0 | 0.00 | 0.00 | 0.00 | 76 | 999.0 |
| 20260505235204 | 50 | 294 | 3.0 | 6.0 | 0.00 | 0.00 | 0.00 | 75 | 998.9 |
| 20260505235004 | 50 | 303 | 4.0 | 7.0 | 0.00 | 0.00 | 0.00 | 75 | 998.8 |
| 20260505234803 | 50 | 308 | 4.0 | 7.0 | 0.00 | 0.00 | 0.00 | 75 | 998.8 |
| 20260505234603 | 50 | 318 | 5.0 | 8.0 | 0.00 | 0.00 | 0.00 | 75 | 998.8 |
| 20260505234404 | 50 | 322 | 5.0 | 8.0 | 0.00 | 0.00 | 0.00 | 75 | 998.9 |
| 20260505234204 | 50 | 322 | 5.0 | 8.0 | 0.00 | 0.00 | 0.00 | 75 | 998.9 |
| 20260505234003 | 50 | 339 | 5.0 | 8.0 | 0.00 | 0.00 | 0.00 | 75 | 998.9 |
| 20260505233603 | 50 | 12 | 5.0 | 11.0 | 0.00 | 0.00 | 0.00 | 75 | 999.0 |
| 20260505233404 | 50 | 18 | 5.0 | 11.0 | 0.00 | 0.00 | 0.00 | 75 | 999.0 |
| 20260505233203 | 50 | 13 | 5.0 | 11.0 | 0.00 | 0.00 | 0.00 | 75 | 998.9 |
| 20260505233003 | 50 | 359 | 6.0 | 11.0 | 0.00 | 0.00 | 0.00 | 75 | 999.1 |
| 20260505232804 | 50 | 346 | 6.0 | 11.0 | 0.00 | 0.00 | 0.00 | 74 | 999.0 |
| 20260505232604 | 50 | 328 | 5.0 | 8.0 | 0.00 | 0.00 | 0.00 | 74 | 999.0 |
| 20260505232203 | 51 | 322 | 4.0 | 8.0 | 0.00 | 0.00 | 0.00 | 75 | 999.1 |
| 20260505232004 | 51 | 325 | 4.0 | 8.0 | 0.00 | 0.00 | 0.00 | 75 | 999.0 |
| 20260505231804 | 51 | 333 | 4.0 | 8.0 | 0.00 | 0.00 | 0.00 | 75 | 999.0 |
| 20260505231403 | 51 | 345 | 4.0 | 6.0 | 0.00 | 0.00 | 0.00 | 75 | 998.9 |
| 20260505231203 | 51 | 341 | 4.0 | 6.0 | 0.00 | 0.00 | 0.00 | 75 | 999.1 |
| 20260505230804 | 51 | 352 | 3.0 | 6.0 | 0.00 | 0.00 | 0.00 | 75 | 999.2 |
| 20260505230604 | 51 | 340 | 3.0 | 6.0 | 0.00 | 0.00 | 0.00 | 75 | 999.1 |
| 20260505230403 | 51 | 350 | 3.0 | 4.0 | 0.00 | 0.00 | 0.00 | 74 | 999.1 |
| 20260505230203 | 51 | 2 | 2.0 | 4.0 | 0.00 | 0.00 | 0.00 | 74 | 999.2 |
| 20260505230005 | 51 | 331 | 2.0 | 4.0 | 0.00 | 0.00 | 0.00 | 74 | 999.3 |
| 20260505225803 | 51 | 340 | 2.0 | 3.0 | 0.00 | 0.00 | 0.00 | 74 | 999.2 |
| 20260505225603 | 51 | 297 | 2.0 | 2.0 | 0.00 | 0.00 | 0.00 | 74 | 999.3 |
| 20260505225404 | 51 | 307 | 2.0 | 3.0 | 0.00 | 0.00 | 0.00 | 74 | 999.3 |
| 20260505225003 | 51 | 25 | 2.0 | 4.0 | 0.00 | 0.00 | 0.00 | 74 | 999.3 |
| 20260505224803 | 51 | 36 | 3.0 | 4.0 | 0.00 | 0.00 | 0.00 | 74 | 999.2 |
| 20260505224404 | 51 | 54 | 3.0 | 4.0 | 0.00 | 0.00 | 0.00 | 74 | 999.2 |
| 20260505224204 | 51 | 96 | 3.0 | 4.0 | 0.00 | 0.00 | 0.00 | 74 | 999.4 |
| 20260505224004 | 51 | 144 | 3.0 | 4.0 | 0.00 | 0.00 | 0.00 | 74 | 999.1 |
| 20260505223803 | 51 | 117 | 3.0 | 4.0 | 0.00 | 0.00 | 0.00 | 74 | 999.4 |
| 20260505223603 | 51 | 143 | 3.0 | 5.0 | 0.00 | 0.00 | 0.00 | 74 | 999.4 |
| 20260505223404 | 51 | 155 | 3.0 | 5.0 | 0.00 | 0.00 | 0.00 | 74 | 999.2 |
| 20260505222803 | 51 | 343 | 3.0 | 5.0 | 0.00 | 0.00 | 0.00 | 74 | 999.3 |
| 20260505222603 | 51 | 333 | 3.0 | 5.0 | 0.00 | 0.00 | 0.00 | 74 | 999.5 |
| 20260505222404 | 51 | 335 | 4.0 | 11.0 | 0.00 | 0.00 | 0.00 | 74 | 999.5 |
| 20260505222203 | 51 | 313 | 4.0 | 11.0 | 0.00 | 0.00 | 0.00 | 74 | 999.5 |
| 20260505222003 | 51 | 303 | 4.0 | 11.0 | 0.00 | 0.00 | 0.00 | 74 | 999.4 |
| 20260505221803 | 51 | 307 | 4.0 | 11.0 | 0.00 | 0.00 | 0.00 | 74 | 999.4 |
| 20260505221604 | 51 | 307 | 4.0 | 11.0 | 0.00 | 0.00 | 0.00 | 74 | 999.5 |
| 20260505221403 | 51 | 320 | 4.0 | 11.0 | 0.00 | 0.00 | 0.00 | 74 | 999.6 |
| 20260505221203 | 51 | 336 | 3.0 | 5.0 | 0.00 | 0.00 | 0.00 | 74 | 999.4 |
| 20260505221004 | 51 | 333 | 4.0 | 7.0 | 0.00 | 0.00 | 0.00 | 74 | 999.3 |
| 20260505220804 | 52 | 339 | 4.0 | 7.0 | 0.00 | 0.00 | 0.00 | 74 | 999.6 |
| 20260505220603 | 52 | 346 | 4.0 | 7.0 | 0.00 | 0.00 | 0.00 | 74 | 999.4 |
| 20260505220403 | 52 | 356 | 4.0 | 7.0 | 0.00 | 0.00 | 0.00 | 73 | 999.5 |
| 20260505220204 | 52 | 15 | 4.0 | 7.0 | 0.00 | 0.00 | 0.00 | 73 | 999.3 |
| 20260505220003 | 52 | 16 | 3.0 | 7.0 | 0.00 | 0.00 | 0.00 | 73 | 999.4 |
| 20260505215803 | 52 | 9 | 3.0 | 5.0 | 0.00 | 0.00 | 0.00 | 73 | 999.4 |
| 20260505215604 | 52 | 345 | 3.0 | 5.0 | 0.00 | 0.00 | 0.00 | 73 | 999.3 |
| 20260505215404 | 52 | 355 | 3.0 | 5.0 | 0.00 | 0.00 | 0.00 | 73 | 999.2 |
| 20260505215003 | 52 | 8 | 4.0 | 6.0 | 0.00 | 0.00 | 0.00 | 73 | 999.3 |
| 20260505214803 | 52 | 351 | 4.0 | 6.0 | 0.00 | 0.00 | 0.00 | 73 | 999.3 |
| 20260505214604 | 52 | 10 | 4.0 | 6.0 | 0.00 | 0.00 | 0.00 | 73 | 999.3 |
| 20260505214404 | 52 | 2 | 3.0 | 6.0 | 0.00 | 0.00 | 0.00 | 73 | 999.3 |
| 20260505214203 | 52 | 329 | 4.0 | 7.0 | 0.00 | 0.00 | 0.00 | 73 | 999.1 |
| 20260505214003 | 52 | 324 | 4.0 | 7.0 | 0.00 | 0.00 | 0.00 | 74 | 999.2 |
| 20260505213604 | 52 | 280 | 4.0 | 7.0 | 0.00 | 0.00 | 0.00 | 74 | 999.2 |
| 20260505213404 | 52 | 301 | 5.0 | 9.0 | 0.00 | 0.00 | 0.00 | 75 | 999.2 |
| 20260505213203 | 53 | 327 | 4.0 | 9.0 | 0.00 | 0.00 | 0.00 | 75 | 999.2 |
| 20260505213004 | 53 | 7 | 5.0 | 9.0 | 0.00 | 0.00 | 0.00 | 76 | 999.2 |
| 20260505212804 | 53 | 3 | 5.0 | 9.0 | 0.00 | 0.00 | 0.00 | 77 | 999.2 |
| 20260505212603 | 53 | 2 | 4.0 | 9.0 | 0.00 | 0.00 | 0.00 | 78 | 999.1 |
| 20260505212405 | 53 | 16 | 4.0 | 5.0 | 0.00 | 0.00 | 0.00 | 78 | 999.1 |
| 20260505212005 | 53 | 11 | 3.0 | 4.0 | 0.00 | 0.00 | 0.00 | 79 | 999.1 |
| 20260505211805 | 53 | 30 | 2.0 | 4.0 | 0.00 | 0.00 | 0.00 | 79 | 999.2 |
| 20260505211605 | 53 | 33 | 2.0 | 4.0 | 0.00 | 0.00 | 0.00 | 79 | 999.2 |
| 20260505211204 | 53 | 44 | 1.0 | 3.0 | 0.00 | 0.00 | 0.00 | 79 | 999.0 |
| 20260505211005 | 53 | 341 | 1.0 | 3.0 | 0.00 | 0.00 | 0.00 | 80 | 999.0 |
| 20260505210805 | 53 | 284 | 1.0 | 3.0 | 0.00 | 0.00 | 0.00 | 80 | 999.2 |
| 20260505210605 | 53 | 264 | 1.0 | 3.0 | 0.00 | 0.00 | 0.00 | 80 | 999.0 |
| 20260505210405 | 53 | 145 | 1.0 | 2.0 | 0.00 | 0.00 | 0.00 | 80 | 998.9 |
| 20260505210205 | 53 | 160 | 1.0 | 2.0 | 0.00 | 0.00 | 0.00 | 80 | 999.0 |
| 20260505210005 | 53 | 149 | 1.0 | 2.0 | 0.00 | 0.00 | 0.00 | 80 | 999.0 |
| 20260505205805 | 53 | 118 | 2.0 | 2.0 | 0.00 | 0.00 | 0.00 | 80 | 998.8 |
| 20260505205605 | 53 | 108 | 2.0 | 2.0 | 0.00 | 0.00 | 0.00 | 80 | 998.9 |
| 20260505205205 | 53 | 105 | 2.0 | 2.0 | 0.00 | 0.00 | 0.00 | 80 | 999.0 |
| 20260505205006 | 53 | 59 | 1.0 | 2.0 | 0.00 | 0.00 | 0.00 | 80 | 998.9 |
| 20260505204805 | 53 | 327 | 1.0 | 2.0 | 0.00 | 0.00 | 0.00 | 80 | 998.8 |
| 20260505204605 | 53 | 328 | 1.0 | 2.0 | 0.00 | 0.00 | 0.00 | 80 | 999.0 |
| 20260505204405 | 53 | 248 | 1.0 | 2.0 | 0.00 | 0.00 | 0.00 | 80 | 999.0 |
| 20260505204005 | 53 | 318 | 1.0 | 2.0 | 0.00 | 0.00 | 0.00 | 80 | 998.9 |
| 20260505203805 | 53 | 85 | 2.0 | 2.0 | 0.00 | 0.00 | 0.00 | 80 | 998.9 |
| 20260505203605 | 53 | 28 | 2.0 | 2.0 | 0.00 | 0.00 | 0.00 | 80 | 998.9 |
| 20260505203205 | 53 | 53 | 2.0 | 3.0 | 0.00 | 0.00 | 0.00 | 79 | 998.9 |
| 20260505203005 | 53 | 51 | 2.0 | 3.0 | 0.00 | 0.00 | 0.00 | 79 | 999.0 |
| 20260505202805 | 53 | 56 | 2.0 | 3.0 | 0.00 | 0.00 | 0.00 | 79 | 998.9 |
| 20260505202605 | 53 | 70 | 2.0 | 4.0 | 0.00 | 0.00 | 0.00 | 78 | 998.9 |
| 20260505202405 | 53 | 77 | 2.0 | 4.0 | 0.00 | 0.00 | 0.00 | 78 | 998.8 |
| 20260505201805 | 53 | 81 | 3.0 | 4.0 | 0.00 | 0.00 | 0.00 | 77 | 998.8 |
| 20260505201405 | 54 | 82 | 2.0 | 3.0 | 0.00 | 0.00 | 0.00 | 75 | 998.8 |
| 20260505201005 | 54 | 88 | 2.0 | 3.0 | 0.00 | 0.00 | 0.00 | 74 | 998.7 |
| 20260505200605 | 54 | 45 | 3.0 | 4.0 | 0.00 | 0.00 | 0.00 | 73 | 998.9 |
| 20260505200405 | 54 | 65 | 3.0 | 4.0 | 0.00 | 0.00 | 0.00 | 72 | 998.8 |
| 20260505200205 | 54 | 355 | 3.0 | 4.0 | 0.00 | 0.00 | 0.00 | 70 | 998.7 |
| 20260505200005 | 54 | 350 | 4.0 | 8.0 | 0.00 | 0.00 | 0.00 | 70 | 998.7 |
| 20260505195805 | 55 | 343 | 4.0 | 8.0 | 0.00 | 0.00 | 0.00 | 69 | 998.8 |
| 20260505195605 | 55 | 183 | 4.0 | 8.0 | 0.00 | 0.00 | 0.00 | 69 | 998.7 |
| 20260505195405 | 55 | 310 | 4.0 | 8.0 | 0.00 | 0.00 | 0.00 | 68 | 998.7 |
| 20260505195205 | 55 | 83 | 4.0 | 8.0 | 0.00 | 0.00 | 0.00 | 68 | 998.7 |
| 20260505194605 | 55 | 69 | 4.0 | 5.0 | 0.00 | 0.00 | 0.00 | 67 | 998.4 |
| 20260505194405 | 55 | 53 | 4.0 | 5.0 | 0.00 | 0.00 | 0.00 | 67 | 998.5 |
| 20260505194205 | 55 | 35 | 4.0 | 5.0 | 0.00 | 0.00 | 0.00 | 67 | 998.5 |
| 20260505194005 | 55 | 31 | 3.0 | 5.0 | 0.00 | 0.00 | 0.00 | 66 | 998.4 |
| 20260505193805 | 55 | 35 | 3.0 | 5.0 | 0.00 | 0.00 | 0.00 | 65 | 998.4 |
| 20260505193605 | 56 | 38 | 2.0 | 5.0 | 0.00 | 0.00 | 0.00 | 65 | 998.5 |
| 20260505193205 | 56 | 73 | 1.0 | 3.0 | 0.00 | 0.00 | 0.00 | 65 | 998.4 |
| 20260505192805 | 56 | 74 | 0.0 | 2.0 | 0.00 | 0.00 | 0.00 | 64 | 998.4 |
| 20260505192605 | 56 | 316 | 1.0 | 2.0 | 0.00 | 0.00 | 0.00 | 64 | 998.3 |
| 20260505192405 | 56 | 331 | 1.0 | 2.0 | 0.00 | 0.00 | 0.00 | 64 | 998.2 |
| 20260505192205 | 56 | 331 | 1.0 | 2.0 | 0.00 | 0.00 | 0.00 | 64 | 998.1 |
| 20260505192005 | 56 | 313 | 1.0 | 2.0 | 0.00 | 0.00 | 0.00 | 64 | 998.3 |
| 20260505191804 | 56 | 342 | 1.0 | 3.0 | 0.00 | 0.00 | 0.00 | 64 | 998.0 |
| 20260505191605 | 56 | 17 | 1.0 | 3.0 | 0.00 | 0.00 | 0.00 | 64 | 998.0 |
| 20260505191405 | 56 | 25 | 1.0 | 3.0 | 0.00 | 0.00 | 0.00 | 63 | 998.1 |
| 20260505191205 | 56 | 25 | 1.0 | 3.0 | 0.00 | 0.00 | 0.00 | 63 | 998.0 |
| 20260505190805 | 56 | 81 | 1.0 | 2.0 | 0.00 | 0.00 | 0.00 | 63 | 998.1 |
| 20260505190605 | 56 | 74 | 1.0 | 2.0 | 0.00 | 0.00 | 0.00 | 63 | 998.0 |
| 20260505190205 | 56 | 69 | 1.0 | 2.0 | 0.00 | 0.00 | 0.00 | 63 | 997.9 |
| 20260505190005 | 56 | 84 | 1.0 | 2.0 | 0.00 | 0.00 | 0.00 | 63 | 998.0 |
| 20260505185805 | 56 | 77 | 0.0 | 2.0 | 0.00 | 0.00 | 0.00 | 63 | 997.9 |
| 20260505185405 | 56 | 97 | 0.0 | 2.0 | 0.00 | 0.00 | 0.00 | 63 | 997.9 |
| 20260505185005 | 56 | 55 | 0.0 | 2.0 | 0.00 | 0.00 | 0.00 | 63 | 997.8 |
| 20260505184805 | 56 | 48 | 0.0 | 2.0 | 0.00 | 0.00 | 0.00 | 63 | 997.9 |
| 20260505184605 | 56 | 48 | 0.0 | 2.0 | 0.00 | 0.00 | 0.00 | 63 | 997.9 |
| 20260505184205 | 56 | 338 | 0.0 | 2.0 | 0.00 | 0.00 | 0.00 | 63 | 997.7 |
| 20260505183805 | 56 | 314 | 0.0 | 2.0 | 0.00 | 0.00 | 0.00 | 62 | 997.7 |
| 20260505183605 | 56 | 314 | 0.0 | 2.0 | 0.00 | 0.00 | 0.00 | 62 | 997.8 |
| 20260505183405 | 56 | 314 | 0.0 | 2.0 | 0.00 | 0.00 | 0.00 | 62 | 997.7 |
| 20260505183205 | 56 | 135 | 0.0 | 1.0 | 0.00 | 0.00 | 0.00 | 62 | 997.8 |
| 20260505183005 | 56 | 0 | 0.0 | 0.0 | 0.00 | 0.00 | 0.00 | 62 | 997.7 |
| 20260505182805 | 56 | 0 | 0.0 | 0.0 | 0.00 | 0.00 | 0.00 | 61 | 997.7 |
| 20260505182605 | 57 | 0 | 0.0 | 0.0 | 0.00 | 0.00 | 0.00 | 61 | 997.7 |
| 20260505182405 | 57 | 0 | 0.0 | 0.0 | 0.00 | 0.00 | 0.00 | 61 | 997.9 |
| 20260505182004 | 57 | 0 | 0.0 | 0.0 | 0.00 | 0.00 | 0.00 | 61 | 997.7 |
| 20260505181805 | 57 | 28 | 0.0 | 1.0 | 0.00 | 0.00 | 0.00 | 61 | 997.7 |
| 20260505181404 | 57 | 40 | 0.0 | 1.0 | 0.00 | 0.00 | 0.00 | 60 | 997.7 |
| 20260505181005 | 57 | 40 | 0.0 | 1.0 | 0.00 | 0.00 | 0.00 | 60 | 997.5 |
| 20260505180805 | 57 | 56 | 0.0 | 1.0 | 0.00 | 0.00 | 0.00 | 60 | 997.8 |
| 20260505180605 | 57 | 78 | 0.0 | 1.0 | 0.00 | 0.00 | 0.00 | 60 | 997.7 |
| 20260505180404 | 57 | 0 | 0.0 | 0.0 | 0.00 | 0.00 | 0.00 | 60 | 997.6 |
| 20260505180205 | 57 | 0 | 0.0 | 0.0 | 0.00 | 0.00 | 0.00 | 60 | 997.6 |
| 20260505180005 | 57 | 0 | 0.0 | 0.0 | 0.00 | 0.00 | 0.00 | 60 | 997.7 |
| 20260505175805 | 57 | 0 | 0.0 | 0.0 | 0.00 | 0.00 | 0.00 | 60 | 997.7 |
| 20260505175405 | 57 | 31 | 0.0 | 2.0 | 0.00 | 0.00 | 0.00 | 60 | 997.6 |
| 20260505175205 | 57 | 35 | 0.0 | 2.0 | 0.00 | 0.00 | 0.00 | 60 | 997.7 |
| 20260505175005 | 57 | 35 | 0.0 | 2.0 | 0.00 | 0.00 | 0.00 | 60 | 997.7 |
| 20260505174804 | 58 | 1 | 0.0 | 2.0 | 0.00 | 0.00 | 0.00 | 59 | 997.6 |
| 20260505174605 | 58 | 9 | 1.0 | 2.0 | 0.00 | 0.00 | 0.00 | 59 | 997.6 |
| 20260505174005 | 58 | 341 | 1.0 | 2.0 | 0.00 | 0.00 | 0.00 | 58 | 997.6 |
| 20260505173605 | 58 | 334 | 0.0 | 2.0 | 0.00 | 0.00 | 0.00 | 58 | 997.6 |
| 20260505173405 | 58 | 311 | 0.0 | 2.0 | 0.00 | 0.00 | 0.00 | 58 | 997.6 |
| 20260505173204 | 58 | 181 | 0.0 | 1.0 | 0.00 | 0.00 | 0.00 | 58 | 997.6 |
| 20260505173005 | 58 | 0 | 0.0 | 0.0 | 0.00 | 0.00 | 0.00 | 58 | 997.7 |
| 20260505172805 | 58 | 157 | 0.0 | 1.0 | 0.00 | 0.00 | 0.00 | 58 | 997.5 |
| 20260505172605 | 58 | 157 | 0.0 | 1.0 | 0.00 | 0.00 | 0.00 | 58 | 997.4 |
| 20260505172405 | 58 | 157 | 0.0 | 1.0 | 0.00 | 0.00 | 0.00 | 58 | 997.7 |
| 20260505172005 | 58 | 10 | 1.0 | 3.0 | 0.00 | 0.00 | 0.00 | 57 | 997.5 |
| 20260505171805 | 58 | 18 | 1.0 | 3.0 | 0.00 | 0.00 | 0.00 | 57 | 997.6 |
| 20260505171604 | 59 | 27 | 1.0 | 3.0 | 0.00 | 0.00 | 0.00 | 56 | 997.7 |
| 20260505171405 | 59 | 27 | 1.0 | 3.0 | 0.00 | 0.00 | 0.00 | 56 | 997.7 |
| 20260505171205 | 59 | 35 | 1.0 | 3.0 | 0.00 | 0.00 | 0.00 | 56 | 997.7 |
| 20260505171005 | 59 | 61 | 1.0 | 3.0 | 0.00 | 0.00 | 0.00 | 56 | 997.7 |
| 20260505170804 | 59 | 143 | 1.0 | 2.0 | 0.00 | 0.00 | 0.00 | 56 | 997.7 |
| 20260505170605 | 59 | 183 | 1.0 | 2.0 | 0.00 | 0.00 | 0.00 | 57 | 997.7 |
| 20260505170405 | 59 | 183 | 1.0 | 2.0 | 0.00 | 0.00 | 0.00 | 57 | 997.8 |
| 20260505170205 | 59 | 189 | 1.0 | 2.0 | 0.00 | 0.00 | 0.00 | 56 | 997.8 |
| 20260505170005 | 60 | 193 | 1.0 | 2.0 | 0.00 | 0.00 | 0.00 | 55 | 997.8 |
| 20260505165805 | 60 | 170 | 1.0 | 2.0 | 0.00 | 0.00 | 0.00 | 55 | 997.8 |
| 20260505165405 | 60 | 59 | 1.0 | 2.0 | 0.00 | 0.00 | 0.00 | 55 | 997.8 |
| 20260505165205 | 60 | 82 | 1.0 | 2.0 | 0.00 | 0.00 | 0.00 | 55 | 997.7 |
| 20260505165005 | 60 | 11 | 1.0 | 2.0 | 0.00 | 0.00 | 0.00 | 55 | 997.7 |
| 20260505164804 | 60 | 5 | 1.0 | 2.0 | 0.00 | 0.00 | 0.00 | 54 | 997.7 |
| 20260505164405 | 61 | 185 | 1.0 | 2.0 | 0.00 | 0.00 | 0.00 | 54 | 997.7 |
| 20260505164205 | 61 | 184 | 1.0 | 2.0 | 0.00 | 0.00 | 0.00 | 54 | 997.7 |
| 20260505164005 | 61 | 184 | 1.0 | 2.0 | 0.00 | 0.00 | 0.00 | 53 | 997.8 |
| 20260505163605 | 62 | 186 | 1.0 | 2.0 | 0.00 | 0.00 | 0.00 | 54 | 997.7 |
| 20260505163205 | 62 | 141 | 0.0 | 1.0 | 0.00 | 0.00 | 0.00 | 54 | 997.7 |
| 20260505163005 | 62 | 175 | 1.0 | 4.0 | 0.00 | 0.00 | 0.00 | 54 | 997.7 |
| 20260505162605 | 62 | 181 | 1.0 | 4.0 | 0.00 | 0.00 | 0.00 | 54 | 997.7 |
| 20260505162405 | 62 | 178 | 1.0 | 4.0 | 0.00 | 0.00 | 0.00 | 54 | 997.7 |
| 20260505162205 | 62 | 177 | 1.0 | 4.0 | 0.00 | 0.00 | 0.00 | 53 | 997.8 |
| 20260505161605 | 62 | 177 | 1.0 | 2.0 | 0.00 | 0.00 | 0.00 | 53 | 997.8 |
| 20260505161404 | 62 | 181 | 1.0 | 2.0 | 0.00 | 0.00 | 0.00 | 53 | 997.6 |
| 20260505161005 | 62 | 192 | 1.0 | 4.0 | 0.00 | 0.00 | 0.00 | 54 | 997.6 |
| 20260505160805 | 61 | 223 | 1.0 | 4.0 | 0.00 | 0.00 | 0.00 | 54 | 997.7 |
| 20260505160405 | 61 | 189 | 2.0 | 4.0 | 0.00 | 0.00 | 0.00 | 53 | 997.7 |
| 20260505160205 | 61 | 203 | 1.0 | 4.0 | 0.00 | 0.00 | 0.00 | 53 | 997.7 |
| 20260505153205 | 64 | 296 | 1.0 | 2.0 | 0.00 | 0.00 | 0.00 | 48 | 997.7 |
| 20260505153005 | 64 | 303 | 1.0 | 2.0 | 0.00 | 0.00 | 0.00 | 47 | 997.7 |
| 20260505152805 | 64 | 318 | 2.0 | 6.0 | 0.00 | 0.00 | 0.00 | 46 | 997.7 |
| 20260505152604 | 63 | 323 | 3.0 | 6.0 | 0.00 | 0.00 | 0.00 | 48 | 997.6 |
| 20260505152405 | 63 | 331 | 3.0 | 6.0 | 0.00 | 0.00 | 0.00 | 47 | 997.6 |
| 20260505152204 | 64 | 343 | 4.0 | 6.0 | 0.00 | 0.00 | 0.00 | 42 | 997.5 |
| 20260505152005 | 64 | 356 | 4.0 | 6.0 | 0.00 | 0.00 | 0.00 | 41 | 997.6 |
| 20260505151805 | 64 | 25 | 4.0 | 6.0 | 0.00 | 0.00 | 0.00 | 41 | 997.6 |
| 20260505151604 | 64 | 103 | 3.0 | 4.0 | 0.00 | 0.00 | 0.00 | 42 | 997.8 |
| 20260505151405 | 64 | 117 | 3.0 | 4.0 | 0.00 | 0.00 | 0.00 | 42 | 997.7 |
| 20260505151205 | 64 | 128 | 2.0 | 4.0 | 0.00 | 0.00 | 0.00 | 42 | 997.7 |
| 20260505151004 | 64 | 140 | 2.0 | 4.0 | 0.00 | 0.00 | 0.00 | 42 | 997.7 |
| 20260505150804 | 64 | 131 | 2.0 | 3.0 | 0.00 | 0.00 | 0.00 | 43 | 997.7 |
| 20260505150605 | 64 | 117 | 2.0 | 3.0 | 0.00 | 0.00 | 0.00 | 42 | 997.7 |
| 20260505150405 | 64 | 132 | 2.0 | 3.0 | 0.00 | 0.00 | 0.00 | 42 | 997.7 |
| 20260505150205 | 64 | 108 | 3.0 | 4.0 | 0.00 | 0.00 | 0.00 | 42 | 997.6 |
| 20260505140605 | 64 | 336 | 4.0 | 5.0 | 0.00 | 0.00 | 0.00 | 41 | 998.0 |
| 20260505140404 | 65 | 345 | 3.0 | 5.0 | 0.00 | 0.00 | 0.00 | 42 | 997.8 |
| 20260505140204 | 65 | 340 | 2.0 | 5.0 | 0.00 | 0.00 | 0.00 | 41 | 998.0 |
| 20260505130205 | 65 | 61 | 3.0 | 4.0 | 0.00 | 0.00 | 0.00 | 43 | 998.4 |
| 20260505124804 | 65 | 353 | 3.0 | 7.0 | 0.00 | 0.00 | 0.00 | 43 | 998.4 |
| 20260505124605 | 65 | 355 | 3.0 | 7.0 | 0.00 | 0.00 | 0.00 | 42 | 998.3 |
| 20260505124405 | 65 | 7 | 3.0 | 7.0 | 0.00 | 0.00 | 0.00 | 41 | 998.3 |
| 20260505124205 | 66 | 10 | 3.0 | 7.0 | 0.00 | 0.00 | 0.00 | 41 | 998.4 |
| 20260505124004 | 66 | 5 | 3.0 | 5.0 | 0.00 | 0.00 | 0.00 | 42 | 998.3 |
| 20260505123804 | 66 | 76 | 2.0 | 5.0 | 0.00 | 0.00 | 0.00 | 42 | 998.4 |
| 20260505123605 | 66 | 12 | 2.0 | 4.0 | 0.00 | 0.00 | 0.00 | 43 | 998.3 |
| 20260505123404 | 66 | 359 | 2.0 | 4.0 | 0.00 | 0.00 | 0.00 | 42 | 998.4 |
| 20260505123205 | 66 | 351 | 2.0 | 4.0 | 0.00 | 0.00 | 0.00 | 43 | 998.4 |
| 20260505123005 | 65 | 17 | 1.0 | 3.0 | 0.00 | 0.00 | 0.00 | 44 | 998.4 |
| 20260505122804 | 65 | 342 | 2.0 | 7.0 | 0.00 | 0.00 | 0.00 | 44 | 998.4 |
| 20260505122604 | 65 | 349 | 3.0 | 7.0 | 0.00 | 0.00 | 0.00 | 44 | 998.4 |
| 20260505122405 | 65 | 343 | 4.0 | 7.0 | 0.00 | 0.00 | 0.00 | 43 | 998.4 |
| 20260505122205 | 65 | 338 | 4.0 | 7.0 | 0.00 | 0.00 | 0.00 | 41 | 998.3 |
| 20260505122004 | 65 | 341 | 4.0 | 7.0 | 0.00 | 0.00 | 0.00 | 41 | 998.4 |
| 20260505121804 | 65 | 336 | 3.0 | 6.0 | 0.00 | 0.00 | 0.00 | 41 | 998.3 |
| 20260505121605 | 65 | 214 | 3.0 | 5.0 | 0.00 | 0.00 | 0.00 | 43 | 998.4 |
| 20260505121205 | 64 | 79 | 3.0 | 5.0 | 0.00 | 0.00 | 0.00 | 44 | 998.2 |
| 20260505121004 | 64 | 75 | 3.0 | 5.0 | 0.00 | 0.00 | 0.00 | 43 | 998.4 |
| 20260505120804 | 64 | 68 | 3.0 | 5.0 | 0.00 | 0.00 | 0.00 | 42 | 998.3 |
| 20260505120605 | 64 | 11 | 3.0 | 6.0 | 0.00 | 0.00 | 0.00 | 42 | 998.5 |
| 20260505120204 | 64 | 355 | 4.0 | 8.0 | 0.00 | 0.00 | 0.00 | 42 | 998.4 |
| 20260505120005 | 64 | 348 | 5.0 | 8.0 | 0.00 | 0.00 | 0.00 | 41 | 998.3 |
| 20260505115805 | 64 | 344 | 6.0 | 8.0 | 0.00 | 0.00 | 0.00 | 40 | 998.4 |
| 20260505115604 | 64 | 346 | 5.0 | 8.0 | 0.00 | 0.00 | 0.00 | 40 | 998.4 |
| 20260505115404 | 64 | 337 | 5.0 | 8.0 | 0.00 | 0.00 | 0.00 | 40 | 998.3 |
| 20260505115204 | 64 | 334 | 5.0 | 8.0 | 0.00 | 0.00 | 0.00 | 41 | 998.3 |
| 20260505115005 | 64 | 342 | 4.0 | 8.0 | 0.00 | 0.00 | 0.00 | 41 | 998.5 |
| 20260505114805 | 64 | 353 | 4.0 | 8.0 | 0.00 | 0.00 | 0.00 | 42 | 998.4 |
| 20260505114604 | 64 | 336 | 4.0 | 8.0 | 0.00 | 0.00 | 0.00 | 41 | 998.5 |
| 20260505114404 | 64 | 350 | 4.0 | 5.0 | 0.00 | 0.00 | 0.00 | 42 | 998.5 |
| 20260505114205 | 64 | 355 | 3.0 | 5.0 | 0.00 | 0.00 | 0.00 | 41 | 998.5 |
| 20260505114005 | 64 | 9 | 3.0 | 8.0 | 0.00 | 0.00 | 0.00 | 40 | 998.5 |
| 20260505113804 | 65 | 23 | 3.0 | 8.0 | 0.00 | 0.00 | 0.00 | 40 | 998.5 |
| 20260505113604 | 65 | 54 | 3.0 | 8.0 | 0.00 | 0.00 | 0.00 | 41 | 998.5 |
| 20260505113205 | 65 | 76 | 3.0 | 8.0 | 0.00 | 0.00 | 0.00 | 41 | 998.5 |
| 20260505112804 | 65 | 66 | 2.0 | 3.0 | 0.00 | 0.00 | 0.00 | 43 | 998.6 |
| 20260505112604 | 65 | 100 | 3.0 | 4.0 | 0.00 | 0.00 | 0.00 | 42 | 998.6 |
| 20260505112405 | 65 | 106 | 3.0 | 4.0 | 0.00 | 0.00 | 0.00 | 42 | 998.6 |
| 20260505112205 | 65 | 86 | 3.0 | 4.0 | 0.00 | 0.00 | 0.00 | 44 | 998.5 |
| 20260505111804 | 64 | 94 | 4.0 | 4.0 | 0.00 | 0.00 | 0.00 | 44 | 998.8 |
| 20260505111604 | 64 | 105 | 4.0 | 4.0 | 0.00 | 0.00 | 0.00 | 44 | 998.7 |
| 20260505111405 | 63 | 76 | 4.0 | 11.0 | 0.00 | 0.00 | 0.00 | 49 | 998.7 |
| 20260505111205 | 63 | 21 | 6.0 | 11.0 | 0.00 | 0.00 | 0.00 | 48 | 998.7 |
| 20260505111004 | 63 | 9 | 6.0 | 11.0 | 0.00 | 0.00 | 0.00 | 48 | 998.8 |
| 20260505110604 | 63 | 15 | 6.0 | 11.0 | 0.00 | 0.00 | 0.00 | 47 | 998.7 |
| 20260505110405 | 63 | 13 | 5.0 | 11.0 | 0.00 | 0.00 | 0.00 | 46 | 998.8 |
| 20260505110205 | 64 | 93 | 4.0 | 9.0 | 0.00 | 0.00 | 0.00 | 46 | 998.8 |
| 20260505102205 | 60 | 343 | 6.0 | 9.0 | 0.00 | 0.00 | 0.00 | 59 | 998.8 |
| 20260505101804 | 60 | 338 | 5.0 | 9.0 | 0.00 | 0.00 | 0.00 | 60 | 998.9 |
| 20260505101604 | 60 | 341 | 5.0 | 7.0 | 0.00 | 0.00 | 0.00 | 60 | 999.0 |
| 20260505101405 | 60 | 339 | 6.0 | 9.0 | 0.00 | 0.00 | 0.00 | 60 | 998.9 |
| 20260505101204 | 60 | 336 | 6.0 | 9.0 | 0.00 | 0.00 | 0.00 | 60 | 998.9 |
| 20260505101004 | 60 | 337 | 7.0 | 9.0 | 0.00 | 0.00 | 0.00 | 61 | 998.9 |
| 20260505100605 | 59 | 329 | 8.0 | 11.0 | 0.00 | 0.00 | 0.00 | 60 | 999.0 |
| 20260505100404 | 60 | 333 | 8.0 | 11.0 | 0.00 | 0.00 | 0.00 | 60 | 999.1 |
| 20260505095804 | 60 | 337 | 7.0 | 11.0 | 0.00 | 0.00 | 0.00 | 59 | 999.0 |
| 20260505095605 | 60 | 348 | 6.0 | 11.0 | 0.00 | 0.00 | 0.00 | 60 | 999.1 |
| 20260505095405 | 60 | 339 | 5.0 | 8.0 | 0.00 | 0.00 | 0.00 | 60 | 999.0 |
| 20260505095004 | 60 | 326 | 6.0 | 8.0 | 0.00 | 0.00 | 0.00 | 60 | 999.0 |
| 20260505094804 | 60 | 323 | 5.0 | 8.0 | 0.00 | 0.00 | 0.00 | 60 | 999.0 |
| 20260505094405 | 61 | 344 | 6.0 | 8.0 | 0.00 | 0.00 | 0.00 | 58 | 999.0 |
| 20260505094004 | 61 | 66 | 5.0 | 8.0 | 0.00 | 0.00 | 0.00 | 60 | 999.1 |
| 20260505093805 | 61 | 90 | 5.0 | 8.0 | 0.00 | 0.00 | 0.00 | 60 | 998.9 |
| 20260505093404 | 62 | 43 | 4.0 | 7.0 | 0.00 | 0.00 | 0.00 | 60 | 999.1 |
| 20260505093004 | 62 | 20 | 3.0 | 6.0 | 0.00 | 0.00 | 0.00 | 61 | 999.0 |
| 20260505092805 | 62 | 42 | 3.0 | 5.0 | 0.00 | 0.00 | 0.00 | 61 | 999.1 |
| 20260505092605 | 62 | 48 | 3.0 | 5.0 | 0.00 | 0.00 | 0.00 | 61 | 998.9 |
| 20260505092404 | 62 | 42 | 3.0 | 4.0 | 0.00 | 0.00 | 0.00 | 61 | 999.2 |
| 20260505092204 | 62 | 60 | 3.0 | 4.0 | 0.00 | 0.00 | 0.00 | 61 | 999.0 |
| 20260505092005 | 62 | 60 | 4.0 | 4.0 | 0.00 | 0.00 | 0.00 | 61 | 999.1 |
| 20260505091804 | 62 | 47 | 4.0 | 6.0 | 0.00 | 0.00 | 0.00 | 62 | 999.1 |
| 20260505091604 | 61 | 69 | 4.0 | 6.0 | 0.00 | 0.00 | 0.00 | 63 | 999.0 |
| 20260505091405 | 61 | 50 | 4.0 | 6.0 | 0.00 | 0.00 | 0.00 | 62 | 999.0 |
| 20260505091204 | 61 | 31 | 4.0 | 6.0 | 0.00 | 0.00 | 0.00 | 62 | 998.9 |
| 20260505091004 | 60 | 20 | 4.0 | 8.0 | 0.00 | 0.00 | 0.00 | 62 | 999.1 |
| 20260505090804 | 60 | 41 | 4.0 | 8.0 | 0.00 | 0.00 | 0.00 | 62 | 999.0 |
| 20260505090205 | 60 | 7 | 4.0 | 8.0 | 0.00 | 0.00 | 0.00 | 62 | 999.1 |
| 20260505090005 | 60 | 22 | 3.0 | 5.0 | 0.00 | 0.00 | 0.00 | 63 | 998.9 |
| 20260505085805 | 60 | 14 | 3.0 | 5.0 | 0.00 | 0.00 | 0.00 | 64 | 999.0 |
| 20260505085605 | 60 | 351 | 3.0 | 5.0 | 0.00 | 0.00 | 0.00 | 64 | 999.0 |
| 20260505085404 | 59 | 302 | 3.0 | 4.0 | 0.00 | 0.00 | 0.00 | 64 | 999.0 |
| 20260505085204 | 59 | 264 | 3.0 | 5.0 | 0.00 | 0.00 | 0.00 | 63 | 999.0 |
| 20260505085005 | 59 | 320 | 4.0 | 7.0 | 0.00 | 0.00 | 0.00 | 63 | 999.1 |
| 20260505084805 | 59 | 331 | 4.0 | 7.0 | 0.00 | 0.00 | 0.00 | 63 | 999.1 |
| 20260505084605 | 59 | 356 | 4.0 | 7.0 | 0.00 | 0.00 | 0.00 | 63 | 999.2 |